Theta_e
327 326 328 332 333 331 330 336 336 334 331 336 335 341 339 338 334 332 331 331 328 326 327 327 326 325 323 323 322 321 320 319 318 315 315 315 314 315 316 316 314 315 314 313
329 331 332 331 330 329 331 333 336 334 335 336 334 339 339 337 335 332 331 332 330 329 328 326 325 325 323 323 322 321 319 317 317 315 315 315 313 315 314 313 313 312 311 312
332 332 330 329 329 331 331 333 333 332 334 332 334 339 339 334 332 331 332 332 330 329 326 324 324 323 322 321 320 319 318 316 316 316 313 315 312 313 313 311 311 311 310 310
331 329 329 329 331 330 331 332 331 331 331 334 335 337 338 335 333 332 332 331 329 327 324 323 322 320 319 320 318 316 317 315 315 314 313 312 312 312 312 313 312 312 313 311
331 331 330 332 331 330 331 331 331 332 332 334 336 341 341 332 333 334 332 331 326 324 322 321 320 319 320 319 317 316 315 314 313 311 311 312 312 311 312 312 312 312 311 311
332 330 330 330 330 330 332 332 330 330 330 332 335 336 339 337 336 334 330 325 324 323 321 319 321 320 319 318 317 315 314 313 312 310 312 312 311 310 311 311 310 311 310 310
332 333 333 330 331 331 330 331 332 332 333 327 330 340 336 333 333 332 329 326 324 323 321 322 321 320 319 316 315 314 313 312 311 311 311 309 309 310 310 310 309 309 310 309
334 338 333 331 331 331 330 330 330 330 328 327 336 340 335 330 330 329 328 327 323 322 322 321 319 318 315 314 312 312 312 312 311 310 309 309 309 308 307 306 307 308 309 309
331 335 333 330 331 330 330 329 326 329 328 329 339 334 332 329 329 327 326 325 323 322 320 318 317 316 314 313 313 313 312 312 311 309 309 308 307 306 306 305 306 306 307 307
332 336 332 332 331 330 327 327 329 329 330 332 336 335 332 330 328 327 326 322 321 319 318 316 314 314 314 313 312 311 310 310 309 309 308 307 306 306 306 305 304 304 306 308
334 333 329 329 333 329 329 330 330 331 332 334 335 336 328 327 325 324 322 320 319 317 316 315 314 313 312 311 310 310 309 309 309 308 308 307 305 305 305 305 304 304 306 307
332 331 331 330 330 328 328 328 329 331 330 335 334 336 327 325 323 323 321 320 318 317 315 313 313 311 310 309 309 308 308 308 308 309 307 306 305 305 305 304 304 304 306 306
332 334 332 329 332 331 329 327 327 329 334 334 330 333 326 323 323 322 320 318 317 316 314 312 311 310 309 307 308 308 308 309 308 307 307 306 306 307 306 305 305 305 306 305
332 332 330 330 331 329 328 327 326 327 327 327 328 329 328 325 322 320 319 317 316 314 313 312 311 309 308 307 308 307 308 308 309 308 307 306 307 306 306 306 307 305 305 305
330 333 329 328 326 326 326 325 325 325 325 326 325 329 326 323 320 320 318 317 315 314 312 311 310 308 307 308 308 308 309 309 308 309 307 307 307 307 307 306 306 307 307 306
330 334 329 333 325 325 326 326 326 324 324 325 324 324 322 322 321 319 318 316 314 313 312 310 310 309 309 308 308 309 309 308 309 309 309 308 308 309 308 308 307 307 307 306
329 332 334 334 331 326 332 327 324 324 326 323 321 322 320 320 320 318 317 315 314 312 311 311 310 309 310 308 309 309 310 309 308 308 308 310 309 308 308 310 308 309 308 308
331 332 334 333 331 333 328 325 324 323 326 323 323 320 320 320 319 317 315 314 313 312 311 311 311 310 309 309 309 309 310 309 309 309 309 310 310 310 309 310 310 309 307 306
328 333 334 333 329 330 329 325 324 324 328 324 323 319 319 319 318 316 313 313 312 311 311 310 310 310 309 310 310 309 308 310 309 310 310 310 310 310 309 308 309 308 308 310
327 330 332 326 327 331 328 324 323 324 330 322 320 319 319 318 320 316 313 312 312 312 311 310 310 309 309 309 309 308 310 310 308 310 310 310 310 310 309 308 309 309 311 311
332 331 329 325 326 332 326 324 322 329 328 321 320 319 319 317 316 314 313 312 311 312 311 310 309 309 309 309 309 310 311 311 311 311 311 312 312 310 310 310 311 311 312 312
332 331 329 329 331 334 325 324 325 324 322 320 319 317 316 316 314 314 313 311 311 312 311 310 310 310 310 310 310 311 311 311 311 311 313 312 310 312 312 311 311 312 311 312
329 328 331 329 331 326 324 323 322 321 320 319 318 316 316 315 314 313 312 312 312 312 311 311 310 311 311 311 311 312 312 311 312 311 311 312 310 312 311 308 306 310 311 311
328 327 331 328 325 325 324 322 321 320 319 316 315 315 315 315 314 312 313 312 311 311 311 311 310 311 312 310 312 311 311 311 310 313 312 313 310 309 310 309 307 302 305 307
329 328 328 327 324 325 323 321 320 319 317 315 314 314 315 314 313 312 314 313 312 312 311 312 312 311 312 312 310 311 311 312 312 313 312 312 313 314 313 312 308 306 303 302
325 328 329 327 323 322 321 320 319 319 317 314 314 314 315 314 313 313 313 312 312 312 312 312 312 312 312 312 313 311 311 311 312 313 312 311 311 312 311 312 311 307 307 305
Wind_Speed
15 10 8 6 11 10 9 4 3 3 8 14 5 14 15 26 23 20 16 12 11 11 13 11 9 9 9 7 11 12 15 16 16 15 14 13 14 10 11 7 10 8 10 12
13 1 11 7 7 11 13 5 5 4 10 18 14 8 11 24 24 22 16 13 12 11 13 9 12 4 6 6 5 8 12 18 16 18 15 15 13 15 7 12 14 10 18 15
13 15 8 6 11 9 9 11 12 17 10 17 5 12 17 17 19 16 11 16 13 13 13 13 9 8 7 9 8 13 13 17 13 13 16 15 15 16 19 19 17 17 16 16
6 8 7 7 7 12 9 11 16 18 17 10 8 2 4 5 7 8 13 18 17 16 13 11 10 7 14 5 12 13 12 10 12 18 17 18 16 17 18 15 14 14 15 14
0 5 7 11 12 10 12 16 16 20 19 5 0 5 4 13 10 6 14 14 18 15 12 8 8 11 8 8 9 13 12 13 16 23 19 18 17 17 16 17 14 12 9 11
4 5 5 10 6 3 11 16 23 18 9 4 5 1 7 8 6 13 12 15 13 8 4 7 8 13 10 8 11 15 16 19 25 23 17 19 22 19 18 18 14 12 12 12
6 19 25 7 11 14 20 18 11 10 11 11 7 14 8 15 15 14 12 9 8 6 5 7 7 10 9 15 14 8 15 19 20 16 19 23 19 16 17 18 18 16 14 15
2 1 14 5 7 10 12 13 10 15 14 15 18 6 4 13 13 9 9 9 5 6 11 15 10 12 15 11 12 16 16 16 17 21 21 21 18 18 19 19 17 12 12 13
11 0 14 4 7 12 7 12 13 11 16 9 8 8 3 4 7 10 12 5 6 14 12 12 14 11 9 15 16 14 15 20 20 22 18 18 19 18 19 18 16 12 11 10
11 12 4 8 7 13 13 14 8 7 8 11 9 13 5 9 8 10 9 20 14 9 12 16 18 14 14 16 18 18 19 17 21 19 16 17 19 24 17 18 16 12 9 7
11 7 15 15 3 9 9 11 7 4 2 4 4 6 8 14 10 11 14 15 14 15 12 14 16 16 18 19 19 20 20 17 17 17 20 24 24 16 16 19 15 13 9 9
9 4 7 10 10 5 12 7 9 6 10 9 15 5 9 11 11 14 14 13 10 12 16 15 17 18 19 17 17 19 16 16 17 15 21 20 19 19 18 19 15 11 10 9
10 6 6 1 9 9 5 9 9 9 8 1 4 4 10 12 12 13 14 9 9 14 14 15 15 18 15 21 16 15 17 14 19 18 24 19 18 16 16 18 16 14 12 8
6 3 5 7 8 4 5 9 10 10 8 9 11 12 9 11 11 14 9 12 14 12 14 13 15 15 17 16 14 15 13 14 16 18 20 25 21 19 19 18 15 12 12 10
3 5 4 6 5 6 4 9 6 8 8 7 13 14 9 7 9 12 11 11 14 15 13 14 15 15 15 12 13 12 12 15 17 17 21 19 20 21 19 16 14 12 11 10
4 4 9 10 3 3 2 7 14 13 12 11 10 9 8 13 12 12 10 12 10 13 11 13 12 12 11 12 11 12 13 14 17 17 19 20 17 19 19 19 21 18 17 13
3 1 5 2 15 7 8 13 10 10 12 11 10 11 12 12 7 7 9 11 12 12 11 11 10 10 9 10 9 10 12 13 15 17 15 17 19 20 14 13 15 17 16 15
3 6 7 5 11 2 5 11 12 11 10 11 11 12 13 7 13 12 11 11 11 9 9 10 9 8 8 8 8 10 11 12 15 17 15 16 17 15 15 16 16 16 16 18
3 5 2 3 3 13 10 12 10 8 13 16 13 14 16 13 12 11 10 10 9 8 8 8 7 6 7 7 10 12 11 11 11 14 12 17 17 17 16 19 16 16 18 20
3 6 7 3 3 3 7 12 10 11 5 16 14 14 14 14 6 8 9 8 8 6 7 7 5 6 6 8 10 11 11 11 10 10 10 13 16 14 16 16 16 15 13 14
7 5 2 3 1 7 14 17 13 6 5 12 11 14 12 11 12 10 5 7 6 4 6 4 5 5 5 9 10 11 11 9 9 7 8 9 10 13 15 17 19 19 17 18
6 5 3 7 6 5 19 10 7 7 9 10 11 11 9 10 9 6 5 5 4 4 4 3 3 4 6 8 9 10 8 9 7 7 7 9 12 11 16 18 16 18 20 18
5 8 5 6 6 10 11 11 8 9 9 10 9 7 5 4 5 3 2 3 2 4 3 2 4 3 5 8 7 7 7 8 4 8 11 11 10 15 13 15 15 11 13 14
12 26 9 7 11 10 8 7 8 8 8 8 7 6 5 8 4 2 2 0 2 2 2 3 3 3 4 6 7 4 5 5 5 6 7 9 12 11 13 10 18 15 9 9
11 10 8 7 12 8 11 9 6 6 6 6 6 5 4 6 4 3 2 2 2 2 2 2 2 3 4 4 5 7 7 6 5 6 6 7 6 6 10 12 12 18 20 13
16 10 6 4 11 10 9 6 4 4 5 5 3 3 5 5 4 2 4 3 2 2 0 2 2 4 2 3 4 4 4 7 5 7 5 5 7 9 7 10 6 9 14 16
Wind_Direction
195 218 246 31 222 320 1 143 63 306 301 311 344 144 157 125 126 116 123 123 122 123 102 96 108 105 75 32 44 28 19 13 8 6 359 350 340 341 326 346 333 290 303 310
210 254 237 359 334 316 322 353 80 277 249 255 294 194 144 141 122 122 142 144 143 142 139 120 94 95 70 53 34 360 357 354 348 10 1 341 347 331 343 347 335 320 328 316
121 226 22 320 312 6 23 355 343 325 257 273 294 37 48 37 87 123 122 133 124 117 111 104 90 65 31 16 356 5 358 6 358 354 346 330 323 307 327 320 320 316 320 311
96 73 311 276 50 8 346 352 324 312 308 332 92 262 137 62 60 148 131 107 114 113 101 96 87 46 336 356 23 11 2 8 344 342 342 332 336 328 317 328 311 320 321 333
324 298 275 36 16 354 344 327 297 293 284 68 352 124 79 150 229 144 103 106 113 111 102 105 3 40 12 2 17 5 347 339 334 341 338 332 319 318 318 315 316 319 341 331
105 19 354 356 329 285 295 319 310 295 303 302 126 351 40 31 101 108 106 106 103 105 75 353 67 21 20 9 354 342 357 349 341 348 344 334 335 337 339 338 335 338 333 305
300 13 345 331 338 3 353 335 324 347 327 335 346 67 39 64 64 104 123 120 112 68 21 57 55 23 4 356 351 1 343 349 350 338 340 342 348 351 347 340 332 336 337 324
290 51 232 293 358 348 341 346 344 325 316 301 46 61 32 59 90 103 119 125 77 53 42 42 39 16 350 14 357 345 354 353 338 333 345 353 345 337 332 327 328 324 311 325
318 22 256 82 337 318 9 337 328 286 277 273 122 93 84 131 90 85 109 72 37 59 47 26 350 5 36 19 8 9 4 352 346 353 356 344 344 349 343 347 343 338 332 339
324 338 24 312 6 46 2 328 348 332 322 338 103 80 75 107 108 91 61 78 76 59 50 18 56 42 24 9 354 346 345 348 359 0 350 344 349 345 345 352 348 347 1 33
24 342 314 321 50 360 17 8 350 359 302 338 274 78 77 85 62 78 88 72 59 57 20 30 33 23 13 4 360 3 6 3 4 356 352 350 352 6 1 359 2 14 26 53
55 315 307 334 69 29 59 20 10 349 343 39 328 65 76 59 58 92 92 75 61 24 34 11 22 12 3 7 359 2 10 12 14 2 359 1 11 17 11 9 21 34 39 51
355 32 318 78 80 15 51 19 13 347 296 99 333 96 62 51 75 70 68 53 42 42 21 31 16 2 11 1 10 6 14 18 10 358 8 11 15 12 16 23 26 36 47 44
335 283 281 329 29 303 58 51 11 44 22 350 37 96 59 40 27 97 64 27 19 30 40 32 12 16 8 11 1 15 16 12 3 4 12 21 21 17 28 23 24 33 34 42
14 301 306 67 360 22 45 45 46 26 44 356 23 48 39 29 20 43 37 30 11 35 39 21 19 19 15 19 15 13 19 7 10 17 23 27 30 22 32 31 34 32 36 39
65 336 298 22 66 17 64 65 24 23 6 22 37 57 29 40 45 52 44 12 31 34 38 14 22 19 12 13 18 15 15 12 10 14 8 17 21 17 38 50 49 47 40 35
332 299 274 42 265 253 48 30 27 8 48 43 21 16 1 16 52 107 56 41 46 48 24 21 29 24 14 19 14 13 18 13 14 11 18 9 24 30 28 22 40 40 45 53
285 320 345 202 224 97 97 49 21 1 51 49 26 1 1 30 76 68 51 61 44 40 32 14 22 26 22 33 9 18 8 13 8 17 13 17 19 16 31 32 33 50 62 55
14 94 340 285 189 116 26 33 12 359 53 27 6 355 1 11 101 74 66 57 58 45 38 21 24 35 40 13 12 355 13 17 11 15 16 31 39 38 49 62 68 72 60 39
224 241 268 13 316 113 42 4 1 320 54 3 7 4 0 346 55 71 77 57 42 41 29 24 33 40 32 12 346 4 2 3 15 20 34 54 39 42 59 55 36 26 27 37
290 253 165 146 63 84 7 16 331 37 7 1 11 10 22 36 73 105 68 65 51 48 33 37 52 41 14 355 1 6 10 18 14 12 25 21 38 50 56 55 48 44 43 64
270 71 317 22 25 48 13 28 45 4 5 23 13 20 28 83 84 76 48 39 30 53 37 32 41 8 5 347 12 6 19 34 29 61 26 42 65 56 47 31 39 49 49 50
50 55 63 41 91 77 56 47 42 23 31 18 23 22 12 81 87 66 67 43 59 45 38 27 20 359 352 2 0 31 37 63 56 63 64 48 56 46 51 25 36 53 51 51
66 55 80 71 360 71 49 75 60 37 34 28 27 26 34 95 54 72 55 251 355 351 39 342 36 6 3 20 45 54 90 56 74 43 50 54 52 66 56 36 36 37 36 49
45 39 72 62 12 93 57 48 43 48 31 28 34 44 47 83 81 33 59 66 102 67 63 20 20 0 25 33 70 73 65 38 47 59 44 29 16 349 338 3 32 47 42 40
32 24 56 60 44 33 46 47 41 33 27 22 42 64 77 79 85 47 96 85 113 67 342 16 312 12 94 85 67 58 70 37 40 24 45 44 14 4 340 323 7 36 37 36